Home   Weather   51°00'N, 114°01'W   Past weeks
Flag for Canada

Past Weather in 51°00'N, 114°01'W, Canada — Yesterday and Last 2 Weeks

Now
50 °F

Passing clouds.


Feels Like: 44 °F
Forecast: 48 / 29 °F
Wind: 17 mph from West

Location: Calgary International

Current Time: Oct 18, 2019 at 6:42:23 pm

Latest Report: Oct 18, 2019 at 6:00 pm


Visibility: 20 mi

Pressure: 29.60 "Hg

Humidity: 28%

Dew Point: 18 °F

Location of 51°00'N, 114°01'WLocation

Past Weather in 51°00'N, 114°01'W — Graph

°F

51°00'N, 114°01'W Temperature Yesterday

Maximum temperature yesterday: 57 °F (at 3:00 pm)
Minimum temperature yesterday: 36 °F (at 2:14 am)
Average temperature yesterday: 48 °F

High & Low Weather Summary for the Past Weeks

 TemperatureHumidityPressure
High64 °F (Oct 7, 4:00 pm)93% (Oct 8, 2:00 am)30.54 "Hg (Oct 8, 2:00 am)
Low12 °F (Oct 10, 7:00 am)23% (Oct 4, 3:00 pm)29.38 "Hg (Oct 17, 6:00 am)
Average39 °F58%29.98 "Hg
* Reported Oct 3 5:00 pm — Oct 18 5:00 pm, 51°00'N, 114°01'W. Weather by CustomWeather, © 2019

Note: Actual official high and low records may vary slightly from our data, if they occured in-between our weather recording intervals... More about our weather records

Advertising

51°00'N, 114°01'W Weather History for the Previous 24 Hours

Scroll right to see more
 ConditionsComfort  
Time TempWeatherWind HumidityBarometerVisibility
5:00 pm
Fri, Oct 18
52 °FPassing clouds.23 mph24%29.55 "Hg25 mi
4:00 pm52 °FScattered clouds.20 mph26%29.55 "Hg30 mi
3:00 pm52 °FPartly sunny.18 mph26%29.52 "Hg30 mi
2:00 pm52 °FPartly sunny.23 mph26%29.52 "Hg40 mi
1:00 pm50 °FPartly sunny.16 mph28%29.52 "Hg30 mi
12:00 pm48 °FPartly sunny.16 mph34%29.50 "Hg35 mi
11:00 am45 °FPartly sunny.15 mph46%29.49 "Hg30 mi
10:00 am43 °FBroken clouds.7 mph49%29.47 "Hg40 mi
9:00 am39 °FPartly sunny.6 mph61%29.47 "Hg30 mi
8:00 am36 °FPassing clouds.6 mph70%29.46 "Hg40 mi
7:00 am39 °FPassing clouds.7 mph52%29.46 "Hg15 mi
6:00 am39 °FPartly cloudy.8 mph56%29.45 "Hg15 mi
5:00 am43 °FPassing clouds.3 mph46%29.45 "Hg15 mi
4:00 am37 °FPassing clouds.6 mph60%29.47 "Hg15 mi
3:00 am39 °FPassing clouds.8 mph52%29.46 "Hg15 mi
2:00 am36 °FPassing clouds.2 mph60%29.47 "Hg15 mi
1:00 am34 °FClear.3 mph60%29.47 "Hg15 mi
12:11 am36 °FClear.7 mph56%29.48 "Hg15 mi
11:00 pm
Thu, Oct 17
39 °FClear.6 mph52%29.46 "Hg15 mi
10:00 pm45 °FPassing clouds.3 mph39%29.46 "Hg15 mi
9:00 pm48 °FClear.13 mph34%29.46 "Hg15 mi
8:00 pm48 °FPassing clouds.15 mph34%29.46 "Hg15 mi
7:00 pm50 °FPassing clouds.17 mph32%29.44 "Hg40 mi
6:00 pm52 °FPassing clouds.23 mph28%29.41 "Hg20 mi
Weather by CustomWeather, © 2019

See weather overview